Location: Crescent
(42.8242°N, 73.7329°W)
Time: 06:06:10
(UTC+00:00)

A-11 Canister half - Pass Details

Date: 22 February 2026
Orbit: 1524 x 1683 km, 47.3° (Epoch: 14 March)

Event Time Altitude Azimuth Distance (km) Brightness Sun altitude
Rises 23:37:27 0° 282° (WNW) 4,701 13.3 -12.0°
Reaches altitude 10° 23:40:33 10° 285° (WNW) 3,706 12.3 -12.6°
Maximum altitude 23:49:52 70° 9° (N) 1,604 9.0 -14.3°
Enters shadow 23:56:47 20° 90° (E) 2,966 9.8 -15.6°
